Location: *
(40.9167°N, 9.5000°E)
Time: 19:07:20
(UTC+00:00)

FREGAT/IRIS - Pass Details

Date: 09 April 2020
Orbit: 326 x 332 km, 96.9° (Epoch: 31 May)

Event Time Altitude Azimuth Distance (km) Brightness Sun altitude
Exits shadow 19:03:22 - 175° (S) 1,349 5.0 -13.0°
Reaches altitude 10° 19:03:32 10° 175° (S) 1,277 4.9 -13.1°
Maximum altitude 19:06:14 67° 259° (WSW) 373 2.6 -13.5°
Drops below altitude 10° 19:08:58 10° 343° (NNW) 1,297 5.8 -14.0°
Sets 19:10:54 0° 346° (NNW) 2,145 6.9 -14.3°
